ATLAS 5 CENTAUR DEB, 44673

Orbit data source: Space-Track

ATLAS 5 CENTAUR DEB, 44673 is space debris in HEO originally from a launch on Wed, 17 Oct 2018 UTC launched from the Air Force Eastern Test Range (AFETR). Debris objects in space refer to the collection of defunct objects orbiting the Earth. Examples of debris include non-operational satellites, rocket bodies, and fragments generated from explosions, collisions, or faulty payload assembly.

Loading next visibility...
Identifier
44673, 2018-079AK
Orbit
HEO
Last TLE update
1 day ago
Origin
Flag of USUnited Launch Alliance/Lockheed Martin (US)
Manufacturer
ULA Decatur
Mission
Spacecraft
Bus & Motor
Unknown
Mass
Unknown
Launch date (UTC)
2018-10-17 (7 years ago)
Launch vehicle
Unknown
Launch site
Air Force Eastern Test Range (AFETR)
Object type
Payload
Rocket body
Debris
Shape & HBR
Unknown
Radar Cross Section
RCS unknown

Expand to show TLE details & history

TLE from 1 day ago
0 ATLAS 5 CENTAUR DEB
1 44673U 18079AK  25180.98777567 -.00000132  00000-0  00000-0 0  9998
2 44673  12.9397  71.9743 4715455 239.0934  66.1155  1.77547076 43611
Epoch: 2025-06-29T23:42Z
TLE epoch observation values (Epoch: 2025-06-29T23:42:23.817Z)
Latitude
0.00001°
Longitude
158.07805°
Altitude
23,210.831 km
Speed
3.62 km/s
True Right ascension
04h 47m 55s
True Declination
0° 00' 00"
Sunlit
Object was in daylight at epoch
Visualization orbit readout
Latitude
12.87472°
Longitude
-105.09948°
Altitude
29,399.229 km
Speed
2.906 km/s
Apparent Right ascension
11h 04m 15s
Apparent Declination
5° 38' 05"
Sunlit
Object is in daylight
Visualization observer readout
Local Sidereal Time
21:44:45
Azimuth
333.403° NNW
Elevation
-40.904°
Doppler factor
1
Orbital elements
Apogee altitude
36,018.48 km
Perigee altitude
8,847.137 km
Semi-major axis
28,810.945 km
Eccentricity
0.47155
Inclination
12.9397°
RAAN
71.9743°
Arg. of periapsis
239.0934°
True anomaly
Unknown
Mean anomaly
66.1155°
Eccentric anomaly
Unknown
Mean motion
0.44382 °/min
Orbital period
811.14 mins
BSTAR
0
Loading maneuver chart data...
Loading SW <> Apogee altitude chart data...

ATLAS 5 CENTAUR DEB Visibility forecast

Observer location: undefined°, undefined°

Span
Click to sort rows by Start time (UTC) header in descending order
Start Az.
Max El. time (UTC)
Max El. Az.
Max El.
End time (UTC)
End Az.
731 mins2025-07-01 14:26:21.450Z213.06° SW2025-07-01 22:41:21.450Z179.666° S40.312°2025-07-02 02:37:21.450Z124.035° SE
|